UAL2152 MMSD-KDEN

Flight info

Callsign UAL2152
Flight time 2h 35m
Altitude 39000
Route UKUXA1A UKUXA DCT LERIV UT9 BECON/N0445F380 DCT LAYEN/N0436F390 DCT ABQ/N0437F380 DCT GNDLA TBARR4
Aircraft A21N/M-VGDW/C

Departure

Time 2026-04-25 20:33
Airport Los Cabos International Airport (MMSD)

Arrival

Time 2026-04-25 23:08
Airport Denver International Airport (KDEN)
Time Latitude Longitude Altitude Speed Heading
2026-04-25 20:25 23.15599 -109.71761 365 ft 0 kts 82°
2026-04-25 20:28 23.15598 -109.71772 365 ft 2 kts 79°
2026-04-25 20:28 23.15595 -109.71789 369 ft 2 kts 79°
2026-04-25 20:28 23.15589 -109.71805 365 ft 2 kts 21°
2026-04-25 20:29 23.15582 -109.71808 369 ft 0 kts
2026-04-25 20:29 23.15584 -109.71808 365 ft 2 kts
2026-04-25 20:30 23.15610 -109.71847 367 ft 10 kts 269°
2026-04-25 20:30 23.15642 -109.71917 367 ft 12 kts 341°
2026-04-25 20:30 23.15729 -109.71932 370 ft 14 kts 354°
2026-04-25 20:30 23.15829 -109.71942 371 ft 16 kts 352°
2026-04-25 20:31 23.15949 -109.71958 374 ft 19 kts 354°
2026-04-25 20:31 23.16089 -109.71971 377 ft 21 kts 355°
2026-04-25 20:31 23.16246 -109.71988 380 ft 24 kts 354°
2026-04-25 20:31 23.16415 -109.72007 384 ft 25 kts 354°
2026-04-25 20:32 23.16556 -109.72051 387 ft 17 kts 289°
2026-04-25 20:32 23.16545 -109.72190 388 ft 19 kts 263°
2026-04-25 20:32 23.16485 -109.72224 387 ft 20 kts 174°
2026-04-25 20:32 23.16086 -109.72176 377 ft 93 kts 174°
2026-04-25 20:33 23.15243 -109.72086 365 ft 147 kts 174°
2026-04-25 20:33 23.14225 -109.72001 973 ft 144 kts 175°
2026-04-25 20:33 23.13226 -109.71886 1567 ft 147 kts 168°
2026-04-25 20:33 23.12606 -109.71602 1921 ft 148 kts 141°
2026-04-25 20:34 23.11507 -109.70566 2555 ft 165 kts 133°
2026-04-25 20:34 23.10996 -109.69469 3231 ft 166 kts 98°
2026-04-25 20:34 23.11055 -109.68157 3707 ft 186 kts 83°
2026-04-25 20:34 23.11182 -109.66678 4174 ft 207 kts 84°
2026-04-25 20:35 23.11358 -109.65040 4615 ft 229 kts 82°
2026-04-25 20:35 23.11579 -109.63228 4971 ft 255 kts 82°
2026-04-25 20:35 23.11807 -109.61232 5431 ft 277 kts 82°
2026-04-25 20:35 23.12034 -109.59108 6179 ft 286 kts 82°
2026-04-25 20:36 23.12253 -109.56949 7039 ft 289 kts 83°
2026-04-25 20:36 23.12473 -109.54760 7853 ft 294 kts 83°
2026-04-25 20:36 23.12693 -109.52564 8695 ft 298 kts 83°
2026-04-25 20:36 23.12918 -109.50302 9527 ft 303 kts 83°
2026-04-25 20:37 23.13146 -109.47999 10246 ft 311 kts 83°
2026-04-25 20:37 23.13385 -109.45583 10538 ft 333 kts 84°
2026-04-25 20:37 23.13641 -109.42995 10778 ft 354 kts 84°
2026-04-25 20:37 23.13908 -109.40300 11401 ft 360 kts 84°
2026-04-25 20:38 23.14176 -109.37588 12161 ft 363 kts 84°
2026-04-25 20:38 23.14446 -109.34854 12888 ft 366 kts 84°
2026-04-25 20:38 23.14719 -109.32088 13609 ft 370 kts 84°
2026-04-25 20:38 23.15031 -109.29297 14252 ft 374 kts 79°
2026-04-25 20:39 23.15765 -109.26580 14889 ft 377 kts 67°
2026-04-25 20:39 23.16989 -109.24091 15499 ft 381 kts 55°
2026-04-25 20:39 23.18526 -109.21724 16114 ft 385 kts 54°
2026-04-25 20:39 23.19573 -109.20112 16525 ft 388 kts 54°
2026-04-25 20:40 23.21645 -109.16904 17341 ft 393 kts 54°
2026-04-25 20:40 23.23220 -109.14456 17946 ft 397 kts 54°
2026-04-25 20:40 23.24813 -109.11977 18488 ft 401 kts 54°
2026-04-25 20:40 23.26422 -109.09471 18992 ft 406 kts 54°
2026-04-25 20:41 23.28047 -109.06940 19500 ft 410 kts 54°
2026-04-25 20:41 23.29689 -109.04381 19999 ft 415 kts 54°
2026-04-25 20:41 23.31348 -109.01794 20500 ft 419 kts 54°
2026-04-25 20:41 23.33025 -108.99178 21008 ft 423 kts 54°
2026-04-25 20:42 23.34719 -108.96534 21496 ft 428 kts 54°
2026-04-25 20:42 23.36427 -108.93867 21991 ft 432 kts 54°
2026-04-25 20:42 23.38155 -108.91167 22485 ft 436 kts 54°
2026-04-25 20:42 23.39989 -108.88518 22969 ft 440 kts 46°
2026-04-25 20:43 23.42253 -108.86280 23430 ft 441 kts 33°
2026-04-25 20:43 23.44893 -108.84587 23854 ft 441 kts 21°
2026-04-25 20:43 23.47711 -108.83244 24267 ft 444 kts 20°
2026-04-25 20:43 23.50551 -108.81888 24686 ft 447 kts 20°
2026-04-25 20:44 23.53375 -108.80536 25092 ft 450 kts 20°
2026-04-25 20:44 23.56252 -108.79155 25513 ft 454 kts 20°
2026-04-25 20:44 23.59152 -108.77761 25913 ft 457 kts 20°
2026-04-25 20:44 23.62079 -108.76354 26300 ft 460 kts 20°
2026-04-25 20:45 23.65021 -108.74939 26692 ft 463 kts 20°
2026-04-25 20:45 23.67986 -108.73511 27066 ft 467 kts 20°
2026-04-25 20:45 23.70970 -108.72075 27441 ft 470 kts 20°
2026-04-25 20:45 23.73972 -108.70629 27817 ft 473 kts 20°
2026-04-25 20:46 23.76989 -108.69175 28173 ft 476 kts 20°
2026-04-25 20:46 23.80035 -108.67707 28525 ft 479 kts 20°
2026-04-25 20:46 23.83094 -108.66231 28889 ft 482 kts 20°
2026-04-25 20:46 23.86073 -108.64793 29207 ft 485 kts 19°
2026-04-25 20:47 23.89125 -108.63320 29549 ft 488 kts 19°
2026-04-25 20:47 23.92245 -108.61813 29889 ft 491 kts 19°
2026-04-25 20:47 23.95274 -108.60349 30183 ft 494 kts 19°
2026-04-25 20:47 23.98420 -108.58825 30529 ft 495 kts 19°
2026-04-25 20:48 24.01582 -108.57293 30864 ft 497 kts 19°
2026-04-25 20:48 24.04745 -108.55760 31240 ft 497 kts 19°
2026-04-25 20:48 24.07906 -108.54227 31681 ft 496 kts 19°
2026-04-25 20:48 24.10846 -108.52801 32103 ft 494 kts 19°
2026-04-25 20:49 24.13985 -108.51279 32556 ft 492 kts 18°
2026-04-25 20:49 24.17114 -108.49760 32988 ft 491 kts 18°
2026-04-25 20:49 24.20229 -108.48249 33414 ft 489 kts 18°
2026-04-25 20:49 24.23341 -108.46738 33822 ft 487 kts 18°
2026-04-25 20:50 24.26437 -108.45234 34187 ft 486 kts 18°
2026-04-25 20:50 24.29530 -108.43731 34508 ft 485 kts 18°
2026-04-25 20:50 24.32572 -108.42252 34808 ft 484 kts 17°
2026-04-25 20:50 24.35648 -108.40756 35119 ft 483 kts 17°
2026-04-25 20:51 24.38718 -108.39262 35406 ft 482 kts 17°
2026-04-25 20:51 24.41791 -108.37765 35679 ft 482 kts 17°
2026-04-25 20:51 24.44866 -108.36267 35958 ft 481 kts 17°
2026-04-25 20:51 24.47928 -108.34773 36232 ft 481 kts 17°
2026-04-25 20:52 24.50984 -108.33283 36495 ft 480 kts 17°
2026-04-25 20:52 24.53010 -108.32294 36659 ft 480 kts 17°
2026-04-25 20:52 24.57084 -108.30305 36992 ft 479 kts 16°
2026-04-25 20:52 24.60089 -108.28837 37230 ft 478 kts 16°
2026-04-25 20:53 24.63126 -108.27352 37470 ft 478 kts 16°
2026-04-25 20:53 24.66167 -108.25864 37701 ft 477 kts 16°
2026-04-25 20:53 24.69197 -108.24381 37920 ft 476 kts 16°
2026-04-25 20:53 24.72231 -108.22896 38118 ft 476 kts 15°
2026-04-25 20:54 24.75254 -108.21415 38329 ft 476 kts 15°
2026-04-25 20:54 24.78275 -108.19934 38526 ft 475 kts 15°
2026-04-25 20:54 24.81300 -108.18450 38688 ft 475 kts 15°
2026-04-25 20:54 24.84313 -108.16972 38843 ft 474 kts 15°
2026-04-25 20:55 24.90352 -108.14006 38900 ft 473 kts 15°
2026-04-25 20:55 24.96361 -108.11051 38907 ft 473 kts 15°
2026-04-25 20:56 25.02371 -108.08094 38899 ft 473 kts 15°
2026-04-25 20:56 25.08383 -108.05133 38901 ft 473 kts 15°
2026-04-25 20:57 25.14375 -108.02178 38896 ft 474 kts 15°
2026-04-25 20:57 25.20397 -107.99206 38898 ft 474 kts 15°
2026-04-25 20:58 25.26430 -107.96238 38888 ft 473 kts 13°
2026-04-25 20:58 25.32621 -107.94090 38888 ft 459 kts
2026-04-25 20:59 25.38842 -107.92924 38884 ft 455 kts 360°
2026-04-25 20:59 25.45100 -107.91786 38882 ft 456 kts
2026-04-25 21:00 25.49289 -107.91025 38883 ft 456 kts 360°
2026-04-25 21:01 25.60750 -107.88952 38878 ft 456 kts 360°
2026-04-25 21:01 25.67016 -107.87818 38881 ft 456 kts 360°
2026-04-25 21:02 25.73278 -107.86683 38880 ft 456 kts 360°
2026-04-25 21:02 25.79511 -107.85553 38882 ft 456 kts 360°
2026-04-25 21:03 25.85794 -107.84411 38890 ft 457 kts 360°
2026-04-25 21:03 25.92080 -107.83268 38899 ft 458 kts 360°
2026-04-25 21:04 25.98369 -107.82122 38895 ft 457 kts 360°
2026-04-25 21:04 26.04656 -107.80977 38905 ft 458 kts 360°
2026-04-25 21:05 26.10934 -107.79831 38902 ft 457 kts 359°
2026-04-25 21:05 26.17224 -107.78683 38905 ft 458 kts 360°
2026-04-25 21:06 26.23480 -107.77539 38917 ft 459 kts 360°
2026-04-25 21:06 26.29789 -107.76383 38920 ft 460 kts 359°
2026-04-25 21:07 26.36094 -107.75229 38928 ft 457 kts 359°
2026-04-25 21:07 26.42385 -107.74075 38932 ft 458 kts 360°
2026-04-25 21:08 26.48661 -107.72923 38931 ft 459 kts 359°
2026-04-25 21:08 26.54967 -107.71769 38931 ft 459 kts 359°
2026-04-25 21:09 26.64433 -107.70024 38923 ft 460 kts 359°
2026-04-25 21:09 26.70725 -107.68863 38937 ft 461 kts 359°
2026-04-25 21:10 26.77033 -107.67694 38928 ft 458 kts 359°
2026-04-25 21:10 26.83341 -107.66532 38931 ft 460 kts 359°
2026-04-25 21:11 26.89657 -107.65362 38934 ft 459 kts 359°
2026-04-25 21:11 26.94901 -107.64391 38936 ft 459 kts 359°
2026-04-25 21:12 27.02242 -107.63031 38940 ft 459 kts 359°
2026-04-25 21:12 27.06451 -107.62248 38938 ft 458 kts 359°
2026-04-25 21:13 27.13774 -107.60890 38942 ft 460 kts 359°
2026-04-25 21:13 27.20080 -107.59714 38950 ft 457 kts 359°
2026-04-25 21:14 27.26377 -107.58542 38949 ft 459 kts 359°
2026-04-25 21:14 27.32684 -107.57366 38950 ft 459 kts 359°
2026-04-25 21:15 27.38936 -107.56205 38951 ft 458 kts 359°
2026-04-25 21:15 27.45221 -107.55040 38929 ft 454 kts 359°
2026-04-25 21:16 27.51461 -107.53887 38953 ft 457 kts 359°
2026-04-25 21:16 27.57774 -107.52722 38947 ft 459 kts 359°
2026-04-25 21:17 27.64072 -107.51549 38946 ft 458 kts 359°
2026-04-25 21:17 27.70376 -107.50376 38950 ft 459 kts 359°
2026-04-25 21:18 27.76691 -107.49202 38947 ft 459 kts 359°
2026-04-25 21:18 27.82989 -107.48028 38946 ft 459 kts 359°
2026-04-25 21:19 27.89288 -107.46852 38936 ft 458 kts 359°
2026-04-25 21:19 27.95554 -107.45682 38934 ft 460 kts 359°
2026-04-25 21:20 28.00849 -107.44694 38931 ft 460 kts 359°
2026-04-25 21:20 28.08170 -107.43321 38929 ft 459 kts 359°
2026-04-25 21:21 28.14481 -107.42139 38920 ft 459 kts 359°
2026-04-25 21:21 28.20763 -107.40958 38917 ft 457 kts 359°
2026-04-25 21:22 28.27072 -107.39776 38905 ft 460 kts 359°
2026-04-25 21:22 28.33373 -107.38590 38901 ft 459 kts 359°
2026-04-25 21:23 28.39674 -107.37403 38892 ft 459 kts 359°
2026-04-25 21:23 28.45974 -107.36215 38892 ft 458 kts 359°
2026-04-25 21:24 28.52227 -107.35035 38882 ft 458 kts 359°
2026-04-25 21:24 28.58518 -107.33846 38883 ft 459 kts 359°
2026-04-25 21:25 28.64859 -107.32646 38882 ft 459 kts 359°
2026-04-25 21:25 28.71130 -107.31458 38880 ft 459 kts 359°
2026-04-25 21:26 28.77424 -107.30261 38879 ft 458 kts 359°
2026-04-25 21:26 28.83731 -107.29066 38872 ft 460 kts 359°
2026-04-25 21:27 28.90044 -107.27864 38874 ft 460 kts 359°
2026-04-25 21:27 28.96349 -107.26661 38867 ft 458 kts 358°
2026-04-25 21:28 29.02658 -107.25458 38866 ft 460 kts 359°
2026-04-25 21:28 29.08961 -107.24256 38864 ft 459 kts 359°
2026-04-25 21:29 29.15242 -107.23054 38867 ft 460 kts 359°
2026-04-25 21:29 29.21557 -107.21844 38864 ft 460 kts 359°
2026-04-25 21:30 29.27876 -107.20633 38861 ft 460 kts 359°
2026-04-25 21:30 29.33128 -107.19625 38849 ft 460 kts 358°
2026-04-25 21:31 29.40526 -107.18205 38847 ft 460 kts 358°
2026-04-25 21:31 29.46849 -107.16989 38840 ft 460 kts 358°
2026-04-25 21:32 29.53138 -107.15777 38830 ft 461 kts 358°
2026-04-25 21:32 29.59459 -107.14558 38828 ft 460 kts 358°
2026-04-25 21:33 29.65778 -107.13338 38813 ft 461 kts 358°
2026-04-25 21:33 29.72106 -107.12115 38811 ft 461 kts 358°
2026-04-25 21:34 29.78436 -107.10888 38787 ft 460 kts 358°
2026-04-25 21:34 29.84747 -107.09665 38771 ft 460 kts 358°
2026-04-25 21:35 29.91066 -107.08439 38779 ft 462 kts 358°
2026-04-25 21:35 29.97410 -107.07208 38765 ft 461 kts 358°
2026-04-25 21:36 30.03707 -107.05981 38755 ft 461 kts 358°
2026-04-25 21:36 30.10032 -107.04749 38744 ft 461 kts 358°
2026-04-25 21:37 30.15338 -107.03714 38737 ft 461 kts 358°
2026-04-25 21:37 30.22689 -107.02275 38738 ft 460 kts 358°
2026-04-25 21:38 30.29032 -107.01041 38732 ft 463 kts 358°
2026-04-25 21:38 30.35380 -106.99795 38724 ft 462 kts 358°
2026-04-25 21:39 30.41727 -106.98550 38724 ft 462 kts 358°
2026-04-25 21:39 30.48075 -106.97304 38723 ft 463 kts 358°
2026-04-25 21:40 30.54422 -106.96055 38717 ft 462 kts 358°
2026-04-25 21:40 30.60769 -106.94805 38712 ft 462 kts 358°
2026-04-25 21:41 30.67104 -106.93557 38703 ft 462 kts 358°
2026-04-25 21:41 30.73442 -106.92306 38701 ft 462 kts 357°
2026-04-25 21:42 30.79770 -106.91055 38695 ft 461 kts 357°
2026-04-25 21:42 30.86105 -106.89801 38697 ft 461 kts 357°
2026-04-25 21:43 30.92408 -106.88553 38700 ft 462 kts 357°
2026-04-25 21:43 30.98740 -106.87296 38702 ft 462 kts 357°
2026-04-25 21:44 31.05079 -106.86037 38704 ft 462 kts 357°
2026-04-25 21:45 31.14596 -106.84142 38712 ft 462 kts 357°
2026-04-25 21:45 31.20941 -106.82877 38711 ft 463 kts 357°
2026-04-25 21:46 31.27298 -106.81608 38715 ft 463 kts 357°
2026-04-25 21:46 31.33609 -106.80346 38714 ft 463 kts 357°
2026-04-25 21:47 31.39965 -106.79073 38718 ft 463 kts 357°
2026-04-25 21:47 31.46318 -106.77800 38734 ft 463 kts 357°
2026-04-25 21:48 31.52680 -106.76523 38770 ft 464 kts 357°
2026-04-25 21:48 31.59038 -106.75243 38791 ft 462 kts 357°
2026-04-25 21:49 31.65366 -106.73968 38817 ft 461 kts 357°
2026-04-25 21:49 31.71701 -106.72694 38872 ft 462 kts 357°
2026-04-25 21:49 31.74816 -106.72237 38902 ft 449 kts 349°
2026-04-25 21:50 31.77884 -106.72301 38921 ft 434 kts 341°
2026-04-25 21:50 31.80819 -106.72852 38935 ft 421 kts 333°
2026-04-25 21:50 31.83580 -106.73826 38934 ft 408 kts 326°
2026-04-25 21:51 31.88693 -106.76502 38933 ft 402 kts 323°
2026-04-25 21:51 31.93786 -106.79209 38933 ft 402 kts 323°
2026-04-25 21:52 31.98887 -106.81922 38887 ft 402 kts 323°
2026-04-25 21:52 32.03987 -106.84642 38846 ft 402 kts 323°
2026-04-25 21:53 32.09046 -106.87343 38850 ft 402 kts 323°
2026-04-25 21:53 32.14145 -106.90069 38892 ft 402 kts 323°
2026-04-25 21:54 32.19237 -106.92795 38940 ft 402 kts 322°
2026-04-25 21:54 32.24335 -106.95527 38943 ft 402 kts 322°
2026-04-25 21:55 32.29432 -106.98263 38947 ft 403 kts 322°
2026-04-25 21:55 32.34537 -107.01006 38945 ft 403 kts 322°
2026-04-25 21:56 32.39646 -107.03755 38901 ft 403 kts 322°
2026-04-25 21:56 32.44747 -107.06503 38854 ft 403 kts 323°
2026-04-25 21:56 32.47410 -107.07680 38828 ft 417 kts 332°
2026-04-25 21:57 32.50315 -107.08233 38806 ft 440 kts 344°
2026-04-25 21:57 32.53434 -107.08162 38787 ft 454 kts 350°
2026-04-25 21:57 32.56594 -107.07856 38758 ft 456 kts 352°
2026-04-25 21:58 32.62920 -107.07113 38714 ft 456 kts 352°
2026-04-25 21:58 32.68176 -107.06537 38711 ft 456 kts 352°
2026-04-25 21:59 32.74484 -107.05879 38710 ft 455 kts 351°
2026-04-25 21:59 32.80801 -107.05233 38708 ft 456 kts 351°
2026-04-25 22:00 32.90322 -107.04254 38697 ft 457 kts 351°
2026-04-25 22:00 32.96648 -107.03600 38720 ft 456 kts 351°
2026-04-25 22:01 33.02939 -107.02951 38749 ft 456 kts 351°
2026-04-25 22:01 33.08248 -107.02403 38772 ft 457 kts 351°
2026-04-25 22:02 33.15620 -107.01639 38795 ft 457 kts 352°
2026-04-25 22:02 33.21956 -107.00981 38793 ft 457 kts 352°
2026-04-25 22:03 33.28306 -107.00322 38787 ft 458 kts 352°
2026-04-25 22:03 33.34660 -106.99662 38764 ft 458 kts 352°
2026-04-25 22:04 33.41005 -106.99001 38727 ft 458 kts 352°
2026-04-25 22:04 33.47309 -106.98343 38684 ft 458 kts 352°
2026-04-25 22:05 33.53661 -106.97679 38669 ft 457 kts 352°
2026-04-25 22:05 33.60007 -106.97015 38667 ft 457 kts 352°
2026-04-25 22:06 33.66341 -106.96352 38668 ft 457 kts 352°
2026-04-25 22:06 33.72675 -106.95687 38718 ft 456 kts 352°
2026-04-25 22:07 33.77936 -106.95134 38757 ft 455 kts 352°
2026-04-25 22:07 33.85269 -106.94363 38794 ft 454 kts 352°
2026-04-25 22:08 33.91575 -106.93700 38865 ft 455 kts 352°
2026-04-25 22:08 33.97904 -106.93032 38881 ft 456 kts 352°
2026-04-25 22:09 34.04229 -106.92363 38880 ft 456 kts 352°
2026-04-25 22:09 34.10536 -106.91693 38883 ft 455 kts 352°
2026-04-25 22:10 34.16841 -106.91025 38841 ft 455 kts 352°
2026-04-25 22:10 34.23115 -106.90359 38800 ft 455 kts 352°
2026-04-25 22:11 34.29430 -106.89688 38753 ft 456 kts 352°
2026-04-25 22:11 34.35750 -106.89014 38711 ft 456 kts 352°
2026-04-25 22:12 34.42069 -106.88338 38677 ft 454 kts 352°
2026-04-25 22:12 34.47291 -106.87779 38674 ft 453 kts 352°
2026-04-25 22:13 34.54607 -106.86998 38671 ft 453 kts 352°
2026-04-25 22:13 34.60890 -106.86325 38671 ft 453 kts 352°
2026-04-25 22:14 34.67180 -106.85649 38666 ft 453 kts 352°
2026-04-25 22:14 34.73451 -106.84974 38658 ft 452 kts 352°
2026-04-25 22:15 34.79703 -106.84301 38700 ft 451 kts 352°
2026-04-25 22:16 34.89068 -106.83290 38755 ft 450 kts 353°
2026-04-25 22:16 34.95309 -106.82618 38845 ft 452 kts 353°
2026-04-25 22:17 35.01597 -106.81940 38908 ft 453 kts 353°
2026-04-25 22:17 35.07795 -106.81552 38947 ft 446 kts 348°
2026-04-25 22:18 35.14007 -106.81410 38945 ft 446 kts 349°
2026-04-25 22:18 35.20207 -106.81257 38949 ft 446 kts 349°
2026-04-25 22:19 35.26401 -106.81108 38921 ft 445 kts 349°
2026-04-25 22:19 35.32576 -106.80960 38868 ft 445 kts 349°
2026-04-25 22:20 35.38806 -106.80811 38813 ft 445 kts 349°
2026-04-25 22:20 35.44994 -106.80661 38750 ft 444 kts 349°
2026-04-25 22:21 35.50794 -106.80523 38717 ft 445 kts 349°
2026-04-25 22:21 35.56972 -106.80373 38722 ft 444 kts 349°
2026-04-25 22:22 35.61069 -106.80275 38730 ft 445 kts 349°
2026-04-25 22:22 35.65902 -106.80159 38737 ft 445 kts 349°
2026-04-25 22:23 35.72053 -106.80010 38737 ft 444 kts 349°
2026-04-25 22:23 35.78256 -106.79862 38738 ft 447 kts 349°
2026-04-25 22:23 35.81328 -106.79778 38750 ft 432 kts 349°
2026-04-25 22:24 35.84278 -106.79689 38754 ft 416 kts 348°
2026-04-25 22:24 35.87114 -106.79607 38751 ft 400 kts 348°
2026-04-25 22:24 35.89849 -106.79536 38759 ft 388 kts 347°
2026-04-25 22:25 35.95299 -106.79436 38765 ft 396 kts 347°
2026-04-25 22:25 36.00843 -106.79323 38761 ft 405 kts 348°
2026-04-25 22:26 36.06513 -106.79186 38769 ft 410 kts 348°
2026-04-25 22:26 36.12300 -106.79045 38769 ft 419 kts 349°
2026-04-25 22:27 36.18198 -106.78901 38765 ft 429 kts 349°
2026-04-25 22:27 36.24234 -106.78754 38765 ft 439 kts 349°
2026-04-25 22:28 36.30367 -106.78603 38761 ft 446 kts 350°
2026-04-25 22:28 36.36571 -106.78442 38762 ft 445 kts 350°
2026-04-25 22:29 36.42760 -106.78286 38760 ft 445 kts 350°
2026-04-25 22:29 36.48964 -106.78134 38765 ft 445 kts 350°
2026-04-25 22:30 36.58248 -106.77903 38763 ft 444 kts 350°
2026-04-25 22:30 36.63423 -106.77778 38767 ft 447 kts 350°
2026-04-25 22:31 36.70610 -106.77595 38774 ft 444 kts 350°
2026-04-25 22:31 36.76830 -106.77221 38781 ft 454 kts 356°
2026-04-25 22:32 36.83109 -106.75684 38784 ft 462 kts
2026-04-25 22:32 36.89387 -106.73937 38792 ft 462 kts
2026-04-25 22:33 36.95632 -106.72200 38802 ft 462 kts
2026-04-25 22:33 37.01903 -106.70444 38808 ft 461 kts
2026-04-25 22:34 37.08178 -106.68681 38818 ft 462 kts
2026-04-25 22:34 37.14453 -106.66915 38839 ft 463 kts
2026-04-25 22:35 37.20719 -106.65146 38837 ft 460 kts
2026-04-25 22:35 37.26959 -106.63384 38838 ft 460 kts
2026-04-25 22:36 37.33202 -106.61620 38820 ft 459 kts
2026-04-25 22:36 37.39448 -106.59852 38818 ft 460 kts
2026-04-25 22:37 37.45683 -106.58081 38831 ft 460 kts
2026-04-25 22:37 37.51953 -106.56302 38859 ft 465 kts
2026-04-25 22:38 37.58217 -106.54509 38880 ft 457 kts
2026-04-25 22:38 37.64414 -106.52746 38906 ft 460 kts
2026-04-25 22:39 37.70655 -106.50961 38926 ft 460 kts
2026-04-25 22:39 37.76902 -106.49176 38926 ft 460 kts
2026-04-25 22:40 37.83141 -106.47387 38903 ft 453 kts
2026-04-25 22:40 37.86159 -106.46508 38890 ft 436 kts
2026-04-25 22:40 37.89061 -106.45661 38867 ft 419 kts
2026-04-25 22:41 37.91862 -106.44850 38679 ft 409 kts
2026-04-25 22:41 37.94661 -106.44059 38159 ft 421 kts
2026-04-25 22:41 37.97612 -106.43245 37351 ft 446 kts
2026-04-25 22:41 38.00671 -106.42392 36429 ft 464 kts
2026-04-25 22:42 38.03850 -106.41477 35519 ft 470 kts
2026-04-25 22:42 38.07052 -106.40542 34646 ft 474 kts
2026-04-25 22:42 38.10276 -106.39599 33809 ft 477 kts
2026-04-25 22:42 38.13518 -106.38655 32875 ft 479 kts
2026-04-25 22:43 38.16772 -106.37711 31956 ft 481 kts
2026-04-25 22:43 38.20041 -106.36765 31074 ft 482 kts
2026-04-25 22:43 38.23315 -106.35820 30208 ft 483 kts
2026-04-25 22:43 38.26598 -106.34872 29299 ft 483 kts
2026-04-25 22:44 38.29884 -106.33923 28353 ft 483 kts
2026-04-25 22:44 38.33124 -106.32985 27447 ft 482 kts
2026-04-25 22:44 38.36392 -106.32038 26563 ft 480 kts
2026-04-25 22:44 38.39639 -106.31095 25897 ft 475 kts
2026-04-25 22:45 38.42824 -106.30164 25522 ft 463 kts
2026-04-25 22:45 38.45907 -106.29259 25415 ft 445 kts
2026-04-25 22:45 38.48863 -106.28389 25409 ft 429 kts
2026-04-25 22:45 38.51797 -106.27538 25434 ft 438 kts
2026-04-25 22:46 38.54779 -106.26678 25434 ft 439 kts
2026-04-25 22:46 38.56748 -106.26106 25435 ft 438 kts
2026-04-25 22:46 38.59718 -106.25240 25431 ft 436 kts
2026-04-25 22:46 38.62676 -106.24278 25448 ft 443 kts 13°
2026-04-25 22:47 38.65472 -106.22562 25447 ft 451 kts 28°
2026-04-25 22:47 38.67931 -106.20012 25483 ft 460 kts 42°
2026-04-25 22:47 38.70042 -106.16919 25487 ft 461 kts 47°
2026-04-25 22:47 38.72014 -106.13724 25353 ft 451 kts 49°
2026-04-25 22:48 38.73926 -106.10599 25200 ft 441 kts 48°
2026-04-25 22:48 38.75817 -106.07578 25049 ft 441 kts 47°
2026-04-25 22:48 38.77765 -106.04530 24859 ft 443 kts 47°
2026-04-25 22:48 38.79729 -106.01493 24543 ft 439 kts 47°
2026-04-25 22:49 38.81673 -105.98499 24205 ft 433 kts 47°
2026-04-25 22:49 38.83591 -105.95553 23879 ft 429 kts 47°
2026-04-25 22:49 38.85502 -105.92617 23538 ft 427 kts 47°
2026-04-25 22:49 38.87398 -105.89701 23183 ft 424 kts 47°
2026-04-25 22:50 38.89282 -105.86797 22855 ft 423 kts 48°
2026-04-25 22:50 38.91159 -105.83882 22514 ft 422 kts 48°
2026-04-25 22:50 38.93020 -105.80980 22183 ft 420 kts 48°
2026-04-25 22:50 38.94872 -105.78087 21855 ft 418 kts 48°
2026-04-25 22:51 38.96719 -105.75202 21530 ft 416 kts 48°
2026-04-25 22:51 38.98552 -105.72337 21202 ft 414 kts 49°
2026-04-25 22:51 39.00381 -105.69477 20896 ft 413 kts 49°
2026-04-25 22:51 39.02198 -105.66634 20713 ft 409 kts 49°
2026-04-25 22:52 39.04011 -105.63811 20458 ft 408 kts 48°
2026-04-25 22:52 39.05826 -105.60994 20047 ft 407 kts 48°
2026-04-25 22:52 39.07622 -105.58207 19796 ft 404 kts 49°
2026-04-25 22:52 39.09429 -105.55414 19536 ft 411 kts 49°
2026-04-25 22:53 39.11222 -105.52487 19296 ft 418 kts 49°
2026-04-25 22:53 39.13057 -105.49618 19166 ft 410 kts 49°
2026-04-25 22:53 39.14817 -105.46855 19060 ft 398 kts 49°
2026-04-25 22:53 39.16555 -105.44121 18783 ft 389 kts 49°
2026-04-25 22:54 39.18264 -105.41458 18554 ft 382 kts 49°
2026-04-25 22:54 39.19954 -105.38814 18336 ft 384 kts 49°
2026-04-25 22:54 39.21648 -105.36144 18108 ft 384 kts 49°
2026-04-25 22:54 39.23331 -105.33478 17861 ft 382 kts 49°
2026-04-25 22:55 39.25002 -105.30820 17601 ft 381 kts 50°
2026-04-25 22:55 39.26661 -105.28174 17346 ft 378 kts 50°
2026-04-25 22:55 39.28065 -105.25355 17232 ft 369 kts 65°
2026-04-25 22:55 39.28854 -105.22270 17031 ft 358 kts 80°
2026-04-25 22:56 39.29227 -105.19124 16746 ft 351 kts 82°
2026-04-25 22:56 39.29583 -105.16035 16495 ft 345 kts 82°
2026-04-25 22:56 39.29942 -105.12955 16262 ft 348 kts 82°
2026-04-25 22:56 39.30301 -105.09877 16010 ft 345 kts 82°
2026-04-25 22:57 39.30657 -105.06853 15768 ft 343 kts 82°
2026-04-25 22:57 39.31014 -105.03812 15479 ft 342 kts 82°
2026-04-25 22:57 39.31374 -105.00750 15109 ft 340 kts 81°
2026-04-25 22:57 39.31893 -104.97812 14960 ft 330 kts 76°
2026-04-25 22:58 39.32428 -104.94975 14870 ft 319 kts 77°
2026-04-25 22:58 39.32938 -104.92234 14778 ft 308 kts 77°
2026-04-25 22:58 39.33429 -104.89590 14679 ft 298 kts 77°
2026-04-25 22:58 39.33948 -104.87024 14431 ft 293 kts 71°
2026-04-25 22:59 39.34572 -104.84560 14128 ft 292 kts 72°
2026-04-25 22:59 39.35201 -104.82067 13803 ft 291 kts 71°
2026-04-25 22:59 39.35825 -104.79588 13502 ft 289 kts 71°
2026-04-25 22:59 39.36513 -104.77152 13169 ft 287 kts 68°
2026-04-25 23:00 39.37229 -104.74772 13022 ft 278 kts 68°
2026-04-25 23:00 39.37919 -104.72476 13016 ft 275 kts 68°
2026-04-25 23:00 39.38737 -104.70215 13011 ft 280 kts 52°
2026-04-25 23:00 39.40133 -104.68513 13017 ft 276 kts 28°
2026-04-25 23:01 39.41782 -104.67261 13014 ft 273 kts 21°
2026-04-25 23:01 39.43564 -104.66556 13027 ft 266 kts
2026-04-25 23:01 39.45404 -104.66492 13024 ft 263 kts 355°
2026-04-25 23:01 39.47239 -104.66489 13024 ft 263 kts 355°
2026-04-25 23:02 39.49049 -104.66472 13023 ft 254 kts 355°
2026-04-25 23:02 39.50757 -104.66445 13012 ft 238 kts 355°
2026-04-25 23:02 39.52418 -104.66423 12518 ft 244 kts 355°
2026-04-25 23:02 39.54152 -104.66423 11880 ft 255 kts 355°
2026-04-25 23:03 39.55963 -104.66443 11218 ft 265 kts 354°
2026-04-25 23:03 39.57822 -104.66416 10594 ft 275 kts 359°
2026-04-25 23:03 39.59739 -104.66345 10103 ft 274 kts 356°
2026-04-25 23:03 39.61615 -104.66320 9701 ft 265 kts 356°
2026-04-25 23:04 39.63426 -104.66298 9336 ft 256 kts 356°
2026-04-25 23:04 39.64592 -104.66283 9100 ft 248 kts 356°
2026-04-25 23:04 39.66761 -104.66253 8675 ft 217 kts 356°
2026-04-25 23:04 39.68182 -104.66233 8425 ft 194 kts 355°
2026-04-25 23:05 39.69485 -104.66219 8163 ft 181 kts 355°
2026-04-25 23:05 39.70701 -104.66206 7947 ft 169 kts 355°
2026-04-25 23:05 39.71840 -104.66192 7727 ft 162 kts 354°
2026-04-25 23:05 39.73007 -104.66180 7519 ft 169 kts 355°
2026-04-25 23:06 39.74169 -104.66164 7304 ft 166 kts 355°
2026-04-25 23:06 39.75322 -104.66149 7107 ft 166 kts 354°
2026-04-25 23:06 39.76480 -104.66136 6887 ft 166 kts 355°
2026-04-25 23:06 39.77633 -104.66122 6699 ft 166 kts 355°
2026-04-25 23:07 39.78776 -104.66108 6448 ft 163 kts 355°
2026-04-25 23:07 39.79917 -104.66094 6153 ft 163 kts 359°
2026-04-25 23:07 39.80989 -104.66081 5871 ft 146 kts
2026-04-25 23:07 39.81979 -104.66070 5683 ft 138 kts
2026-04-25 23:08 39.82947 -104.66065 5506 ft 137 kts
2026-04-25 23:08 39.83857 -104.66050 5423 ft 122 kts
2026-04-25 23:08 39.84597 -104.66032 5405 ft 81 kts
2026-04-25 23:08 39.85002 -104.66031 5399 ft 46 kts 358°
2026-04-25 23:09 39.85225 -104.66107 5399 ft 21 kts 332°
2026-04-25 23:09 39.85369 -104.66213 5393 ft 25 kts 330°
2026-04-25 23:09 39.85542 -104.66233 5393 ft 26 kts
2026-04-25 23:09 39.85726 -104.66237 5389 ft 27 kts 357°
2026-04-25 23:10 39.85916 -104.66230 5383 ft 27 kts
2026-04-25 23:10 39.86014 -104.66376 5378 ft 27 kts 272°
2026-04-25 23:10 39.86060 -104.66617 5373 ft 26 kts 269°
2026-04-25 23:10 39.86061 -104.66851 5375 ft 27 kts 270°
2026-04-25 23:11 39.86063 -104.67099 5373 ft 28 kts 270°
2026-04-25 23:11 39.86065 -104.67361 5376 ft 30 kts 270°
2026-04-25 23:11 39.86066 -104.67609 5375 ft 27 kts 270°
2026-04-25 23:11 39.86039 -104.67752 5373 ft 11 kts 198°
2026-04-25 23:12 39.85958 -104.67752 5376 ft 13 kts 181°
2026-04-25 23:12 39.85940 -104.67752 5376 ft 2 kts 178°
2026-04-25 23:12 39.85938 -104.67752 5376 ft 0 kts 178°